Time,TemperatureF,DewpointF,PressureIn,WindDirection,WindDirectionDegrees,WindSpeedMPH,WindSpeedGustMPH,Humidity,HourlyPrecipIn,Conditions,Clouds,dailyrainin,SoftwareType,DateUTC
2013-04-01 00:04:00,27.3,12.4,30.95,NW,315,3.0,3.0,53,0.00,,,0.02,meteohub,2013-04-01 06:04:00,
2013-04-01 00:09:00,27.0,12.6,30.95,SE,135,2.0,3.0,54,0.00,,,0.00,meteohub,2013-04-01 06:09:00,
2013-04-01 00:14:00,27.1,12.7,30.95,SE,135,4.0,4.0,54,0.00,,,0.00,meteohub,2013-04-01 06:14:00,
2013-04-01 00:20:00,27.0,12.6,30.95,SE,135,4.0,4.0,54,0.00,,,0.00,meteohub,2013-04-01 06:20:00,
2013-04-01 00:25:00,27.3,12.9,30.95,South,180,4.0,4.0,54,0.00,,,0.00,meteohub,2013-04-01 06:25:00,
2013-04-01 00:30:00,27.7,12.7,30.95,SE,135,4.0,4.0,53,0.00,,,0.00,meteohub,2013-04-01 06:30:00,
2013-04-01 00:32:00,28.0,13.1,30.94,SE,135,6.0,6.0,53,0.00,,,0.00,meteohub,2013-04-01 06:32:00,
2013-04-01 00:37:00,28.6,14.9,30.95,South,180,4.0,8.0,56,0.00,,,0.00,meteohub,2013-04-01 06:37:00,
2013-04-01 00:42:00,28.4,14.4,30.95,South,180,2.0,8.0,55,0.00,,,0.00,meteohub,2013-04-01 06:42:00,
2013-04-01 00:47:00,28.2,12.4,30.94,South,180,5.0,8.0,51,0.00,,,0.00,meteohub,2013-04-01 06:47:00,
2013-04-01 00:52:00,28.4,14.4,30.94,West,270,2.0,6.0,55,0.00,,,0.00,meteohub,2013-04-01 06:52:00,
2013-04-01 00:57:00,28.4,13.8,30.94,South,180,2.0,6.0,54,0.00,,,0.00,meteohub,2013-04-01 06:57:00,
2013-04-01 01:02:00,27.7,11.5,30.94,SE,135,4.0,5.0,50,0.00,,,0.00,meteohub,2013-04-01 07:02:00,
2013-04-01 01:07:00,27.1,11.5,30.93,SE,135,1.0,4.0,51,0.00,,,0.00,meteohub,2013-04-01 07:07:00,
2013-04-01 01:12:00,27.1,11.5,30.93,SE,135,5.0,6.0,51,0.00,,,0.00,meteohub,2013-04-01 07:12:00,
2013-04-01 01:17:00,27.9,12.0,30.93,South,180,4.0,6.0,51,0.00,,,0.00,meteohub,2013-04-01 07:17:00,
2013-04-01 01:22:00,28.4,14.4,30.93,East,90,6.0,6.0,55,0.00,,,0.00,meteohub,2013-04-01 07:22:00,
2013-04-01 01:27:00,28.6,14.0,30.93,South,180,4.0,8.0,54,0.00,,,0.00,meteohub,2013-04-01 07:27:00,
2013-04-01 01:32:00,28.6,14.0,30.93,SE,135,4.0,8.0,54,0.00,,,0.00,meteohub,2013-04-01 07:32:00,
2013-04-01 01:37:00,28.6,14.0,30.93,SE,135,4.0,8.0,54,0.00,,,0.00,meteohub,2013-04-01 07:37:00,
2013-04-01 01:42:00,28.2,11.5,30.93,South,180,4.0,8.0,49,0.00,,,0.00,meteohub,2013-04-01 07:42:00,
2013-04-01 01:47:00,27.7,10.9,30.93,South,180,3.0,5.0,49,0.00,,,0.00,meteohub,2013-04-01 07:47:00,
2013-04-01 01:52:00,26.8,10.2,30.93,East,90,2.0,5.0,49,0.00,,,0.00,meteohub,2013-04-01 07:52:00,
2013-04-01 01:58:00,26.4,10.8,30.93,SE,135,4.0,4.0,51,0.00,,,0.00,meteohub,2013-04-01 07:58:00,
2013-04-01 02:03:00,26.4,10.8,30.93,SE,135,4.0,4.0,51,0.00,,,0.00,meteohub,2013-04-01 08:03:00,
2013-04-01 02:08:00,25.9,10.8,30.93,NE,45,1.0,4.0,52,0.00,,,0.00,meteohub,2013-04-01 08:08:00,
2013-04-01 02:13:00,25.3,10.2,30.92,SE,135,2.0,4.0,52,0.00,,,0.00,meteohub,2013-04-01 08:13:00,
2013-04-01 02:18:00,25.2,10.4,30.93,SE,135,2.0,4.0,53,0.00,,,0.00,meteohub,2013-04-01 08:18:00,
2013-04-01 02:23:00,25.0,10.2,30.93,SE,135,2.0,4.0,53,0.00,,,0.00,meteohub,2013-04-01 08:23:00,
2013-04-01 02:28:00,25.0,10.2,30.93,SW,225,2.0,4.0,53,0.00,,,0.00,meteohub,2013-04-01 08:28:00,
2013-04-01 02:33:00,24.8,10.0,30.92,East,90,4.0,4.0,53,0.00,,,0.00,meteohub,2013-04-01 08:33:00,
2013-04-01 02:38:00,25.3,10.9,30.92,SE,135,8.0,8.0,54,0.00,,,0.00,meteohub,2013-04-01 08:38:00,
2013-04-01 02:43:00,26.2,11.8,30.92,South,180,7.0,8.0,54,0.00,,,0.00,meteohub,2013-04-01 08:43:00,
2013-04-01 02:48:00,27.0,11.7,30.92,SE,135,5.0,8.0,52,0.00,,,0.00,meteohub,2013-04-01 08:48:00,
2013-04-01 02:53:00,27.3,11.7,30.92,SE,135,5.0,8.0,51,0.00,,,0.00,meteohub,2013-04-01 08:53:00,
2013-04-01 02:58:00,27.3,11.1,30.92,SW,225,5.0,7.0,50,0.00,,,0.00,meteohub,2013-04-01 08:58:00,
2013-04-01 03:03:00,27.3,11.1,30.92,South,180,4.0,7.0,50,0.00,,,0.00,meteohub,2013-04-01 09:03:00,
2013-04-01 03:08:00,27.1,10.9,30.92,South,180,4.0,7.0,50,0.00,,,0.00,meteohub,2013-04-01 09:08:00,
2013-04-01 03:13:00,26.4,10.2,30.92,SE,135,2.0,8.0,50,0.00,,,0.00,meteohub,2013-04-01 09:13:00,
2013-04-01 03:18:00,25.7,10.0,30.92,SW,225,4.0,8.0,51,0.00,,,0.00,meteohub,2013-04-01 09:18:00,
2013-04-01 03:23:00,25.3,9.7,30.92,SE,135,3.0,7.0,51,0.00,,,0.00,meteohub,2013-04-01 09:23:00,
2013-04-01 03:28:00,25.0,9.9,30.92,South,180,4.0,7.0,52,0.00,,,0.00,meteohub,2013-04-01 09:28:00,
2013-04-01 03:33:00,25.0,9.9,30.92,South,180,4.0,6.0,52,0.00,,,0.00,meteohub,2013-04-01 09:33:00,
2013-04-01 03:38:00,24.6,9.9,30.92,SW,225,4.0,5.0,53,0.00,,,0.00,meteohub,2013-04-01 09:38:00,
2013-04-01 03:43:00,24.3,9.7,30.92,South,180,4.0,5.0,53,0.00,,,0.00,meteohub,2013-04-01 09:43:00,
2013-04-01 03:48:00,24.4,10.2,30.92,East,90,2.0,5.0,54,0.00,,,0.00,meteohub,2013-04-01 09:48:00,
2013-04-01 03:53:00,24.4,10.2,30.92,South,180,8.0,8.0,54,0.00,,,0.00,meteohub,2013-04-01 09:53:00,
2013-04-01 03:58:00,25.0,10.2,30.92,South,180,2.0,8.0,53,0.00,,,0.00,meteohub,2013-04-01 09:58:00,
2013-04-01 04:03:00,25.2,10.4,30.92,SW,225,2.0,8.0,53,0.00,,,0.00,meteohub,2013-04-01 10:03:00,
2013-04-01 04:08:00,25.0,10.2,30.93,South,180,2.0,8.0,53,0.00,,,0.00,meteohub,2013-04-01 10:08:00,
2013-04-01 04:13:00,24.6,10.4,30.92,South,180,2.0,4.0,54,0.00,,,0.00,meteohub,2013-04-01 10:13:00,
2013-04-01 04:18:00,24.4,10.2,30.92,West,270,2.0,2.0,54,0.00,,,0.00,meteohub,2013-04-01 10:18:00,
2013-04-01 04:24:00,24.1,10.2,30.92,North,0,4.0,4.0,55,0.00,,,0.00,meteohub,2013-04-01 10:24:00,
2013-04-01 04:29:00,24.1,10.6,30.92,NW,315,2.0,5.0,56,0.00,,,0.00,meteohub,2013-04-01 10:29:00,
2013-04-01 04:34:00,23.9,10.4,30.92,North,0,1.0,5.0,56,0.00,,,0.00,meteohub,2013-04-01 10:34:00,
2013-04-01 04:39:00,23.7,10.4,30.92,South,180,2.0,5.0,56,0.00,,,0.00,meteohub,2013-04-01 10:39:00,
2013-04-01 04:44:00,23.5,10.2,30.92,SE,135,4.0,5.0,56,0.00,,,0.00,meteohub,2013-04-01 10:44:00,
2013-04-01 04:49:00,24.1,10.6,30.92,SE,135,4.0,5.0,56,0.00,,,0.00,meteohub,2013-04-01 10:49:00,
2013-04-01 04:54:00,24.4,10.9,30.92,North,0,3.0,5.0,56,0.00,,,0.00,meteohub,2013-04-01 10:54:00,
2013-04-01 04:59:00,24.3,10.4,30.92,SE,135,2.0,5.0,55,0.00,,,0.00,meteohub,2013-04-01 10:59:00,
2013-04-01 05:04:00,24.4,10.6,30.92,West,270,4.0,4.0,55,0.00,,,0.00,meteohub,2013-04-01 11:04:00,
2013-04-01 05:09:00,24.4,10.6,30.92,North,0,0.0,7.0,55,0.00,,,0.00,meteohub,2013-04-01 11:09:00,
2013-04-01 05:14:00,24.1,10.2,30.92,North,0,3.0,7.0,55,0.00,,,0.00,meteohub,2013-04-01 11:14:00,
2013-04-01 05:19:00,23.7,9.9,30.92,North,0,4.0,7.0,55,0.00,,,0.00,meteohub,2013-04-01 11:19:00,
2013-04-01 05:24:00,23.4,10.0,30.92,North,0,4.0,4.0,56,0.00,,,0.00,meteohub,2013-04-01 11:24:00,
2013-04-01 05:29:00,23.2,10.2,30.92,North,0,1.0,4.0,57,0.00,,,0.00,meteohub,2013-04-01 11:29:00,
2013-04-01 05:34:00,23.2,10.2,30.92,SE,135,7.0,7.0,57,0.00,,,0.00,meteohub,2013-04-01 11:34:00,
2013-04-01 05:39:00,24.3,11.3,30.92,South,180,7.0,7.0,57,0.00,,,0.00,meteohub,2013-04-01 11:39:00,
2013-04-01 05:44:00,24.8,10.9,30.92,South,180,4.0,7.0,55,0.00,,,0.00,meteohub,2013-04-01 11:44:00,
2013-04-01 05:49:00,25.0,10.8,30.92,South,180,6.0,7.0,54,0.00,,,0.00,meteohub,2013-04-01 11:49:00,
2013-04-01 05:54:00,25.3,10.6,30.92,NW,315,1.0,8.0,53,0.00,,,0.00,meteohub,2013-04-01 11:54:00,
2013-04-01 05:59:00,25.3,10.6,30.92,NW,315,1.0,8.0,53,0.00,,,0.00,meteohub,2013-04-01 11:59:00,
2013-04-01 06:04:00,25.3,10.6,30.92,NW,315,1.0,8.0,53,0.00,,,0.00,meteohub,2013-04-01 12:04:00,
2013-04-01 06:09:00,24.1,9.5,30.92,South,180,3.0,5.0,53,0.00,,,0.00,meteohub,2013-04-01 12:09:00,
2013-04-01 06:14:00,24.3,10.0,30.92,South,180,4.0,4.0,54,0.00,,,0.00,meteohub,2013-04-01 12:14:00,
2013-04-01 06:19:00,24.8,10.0,30.92,South,180,3.0,6.0,53,0.00,,,0.00,meteohub,2013-04-01 12:19:00,
2013-04-01 06:24:00,24.6,10.4,30.92,NW,315,0.0,6.0,54,0.00,,,0.00,meteohub,2013-04-01 12:24:00,
2013-04-01 06:29:00,23.9,9.3,30.92,NE,45,0.0,6.0,53,0.00,,,0.00,meteohub,2013-04-01 12:29:00,
2013-04-01 06:34:00,23.2,9.0,30.91,SE,135,3.0,4.0,54,0.00,,,0.00,meteohub,2013-04-01 12:34:00,
2013-04-01 06:39:00,23.4,9.5,30.92,East,90,4.0,4.0,55,0.00,,,0.00,meteohub,2013-04-01 12:39:00,
2013-04-01 06:44:00,23.5,9.7,30.92,SE,135,2.0,6.0,55,0.00,,,0.00,meteohub,2013-04-01 12:44:00,
2013-04-01 06:49:00,23.5,9.7,30.92,South,180,6.0,6.0,55,0.00,,,0.00,meteohub,2013-04-01 12:49:00,
2013-04-01 06:54:00,23.9,10.0,30.92,NE,45,5.0,6.0,55,0.00,,,0.00,meteohub,2013-04-01 12:54:00,
2013-04-01 06:59:00,23.2,9.3,30.92,South,180,2.0,7.0,55,0.00,,,0.00,meteohub,2013-04-01 12:59:00,
2013-04-01 07:04:00,22.8,9.5,30.92,NE,45,2.0,7.0,56,0.00,,,0.00,meteohub,2013-04-01 13:04:00,
2013-04-01 07:09:00,22.5,9.5,30.92,West,270,2.0,6.0,57,0.00,,,0.00,meteohub,2013-04-01 13:09:00,
2013-04-01 07:14:00,22.3,9.3,30.92,SW,225,2.0,4.0,57,0.00,,,0.00,meteohub,2013-04-01 13:14:00,
2013-04-01 07:19:00,21.9,9.3,30.92,West,270,1.0,4.0,58,0.00,,,0.00,meteohub,2013-04-01 13:19:00,
2013-04-01 07:24:00,21.9,9.3,30.92,East,90,2.0,4.0,58,0.00,,,0.00,meteohub,2013-04-01 13:24:00,
2013-04-01 07:29:00,21.9,9.9,30.92,South,180,10.0,10.0,59,0.00,,,0.00,meteohub,2013-04-01 13:29:00,
2013-04-01 07:34:00,22.8,10.9,30.92,South,180,4.0,8.0,60,0.00,,,0.00,meteohub,2013-04-01 13:34:00,
2013-04-01 07:39:00,23.4,11.1,30.92,SE,135,3.0,10.0,59,0.00,,,0.00,meteohub,2013-04-01 13:39:00,
2013-04-01 07:44:00,23.9,11.3,30.92,SE,135,4.0,10.0,58,0.00,,,0.00,meteohub,2013-04-01 13:44:00,
2013-04-01 07:49:00,25.0,11.8,30.92,SE,135,4.0,10.0,57,0.00,,,0.00,meteohub,2013-04-01 13:49:00,
2013-04-01 07:54:00,26.1,12.6,30.92,SE,135,4.0,7.0,56,0.00,,,0.00,meteohub,2013-04-01 13:54:00,
2013-04-01 07:59:00,26.6,11.8,30.92,South,180,6.0,7.0,53,0.00,,,0.00,meteohub,2013-04-01 13:59:00,
2013-04-01 08:05:00,26.6,11.8,30.92,South,180,6.0,9.0,53,0.00,,,0.00,meteohub,2013-04-01 14:05:00,
2013-04-01 08:10:00,27.7,11.8,30.92,South,180,5.0,9.0,51,0.00,,,0.00,meteohub,2013-04-01 14:10:00,
2013-04-01 08:15:00,27.9,12.0,30.92,South,180,6.0,9.0,51,0.00,,,0.00,meteohub,2013-04-01 14:15:00,
2013-04-01 08:20:00,27.9,12.0,30.92,SSE,158,7.0,8.0,51,0.00,,,0.00,meteohub,2013-04-01 14:20:00,
2013-04-01 08:25:00,28.0,11.8,30.93,South,180,7.0,8.0,50,0.00,,,0.00,meteohub,2013-04-01 14:25:00,
2013-04-01 08:30:00,28.2,12.0,30.92,South,180,6.0,9.0,50,0.00,,,0.00,meteohub,2013-04-01 14:30:00,
2013-04-01 08:35:00,28.6,14.0,30.92,South,180,6.0,9.0,54,0.00,,,0.00,meteohub,2013-04-01 14:35:00,
2013-04-01 08:40:00,30.0,15.4,30.92,South,180,7.0,9.0,54,0.00,,,0.00,meteohub,2013-04-01 14:40:00,
2013-04-01 08:45:00,31.6,16.5,30.92,SE,135,5.0,7.0,53,0.00,,,0.00,meteohub,2013-04-01 14:45:00,
2013-04-01 08:50:00,32.7,16.5,30.92,South,180,6.0,7.0,51,0.00,,,0.00,meteohub,2013-04-01 14:50:00,
2013-04-01 08:55:00,33.6,16.9,30.92,South,180,6.0,7.0,50,0.00,,,0.00,meteohub,2013-04-01 14:55:00,
2013-04-01 09:00:00,34.9,17.2,30.92,South,180,8.0,8.0,48,0.00,,,0.00,meteohub,2013-04-01 15:00:00,
2013-04-01 09:05:00,35.6,16.3,30.91,South,180,5.0,8.0,45,0.00,,,0.00,meteohub,2013-04-01 15:05:00,
2013-04-01 09:10:00,36.1,16.9,30.91,West,270,2.0,8.0,45,0.00,,,0.00,meteohub,2013-04-01 15:10:00,
2013-04-01 09:15:00,36.9,17.1,30.91,West,270,1.0,8.0,44,0.00,,,0.00,meteohub,2013-04-01 15:15:00,
2013-04-01 09:20:00,38.1,20.1,30.91,South,180,3.0,8.0,48,0.00,,,0.00,meteohub,2013-04-01 15:20:00,
2013-04-01 09:25:00,38.8,20.3,30.91,South,180,2.0,5.0,47,0.00,,,0.00,meteohub,2013-04-01 15:25:00,
2013-04-01 09:30:00,39.2,19.6,30.91,South,180,2.0,4.0,45,0.00,,,0.00,meteohub,2013-04-01 15:30:00,
2013-04-01 09:35:00,39.2,19.0,30.91,South,180,2.0,4.0,44,0.00,,,0.00,meteohub,2013-04-01 15:35:00,
2013-04-01 09:40:00,39.2,19.0,30.91,South,180,2.0,4.0,44,0.00,,,0.00,meteohub,2013-04-01 15:40:00,
2013-04-01 09:45:00,39.4,19.2,30.91,South,180,2.0,4.0,44,0.00,,,0.00,meteohub,2013-04-01 15:45:00,
2013-04-01 09:50:00,39.6,18.9,30.90,South,180,2.0,2.0,43,0.00,,,0.00,meteohub,2013-04-01 15:50:00,
2013-04-01 09:55:00,40.3,20.1,30.90,South,180,1.0,2.0,44,0.00,,,0.00,meteohub,2013-04-01 15:55:00,
2013-04-01 10:00:00,41.0,19.6,30.90,South,180,2.0,2.0,42,0.00,,,0.00,meteohub,2013-04-01 16:00:00,
2013-04-01 10:05:00,41.0,19.6,30.90,South,180,2.0,3.0,42,0.00,,,0.00,meteohub,2013-04-01 16:05:00,
2013-04-01 10:10:00,42.8,20.1,30.90,South,180,1.0,3.0,40,0.00,,,0.00,meteohub,2013-04-01 16:10:00,
2013-04-01 10:15:00,43.5,20.8,30.90,SW,225,3.0,3.0,40,0.00,,,0.00,meteohub,2013-04-01 16:15:00,
2013-04-01 10:20:00,44.4,21.0,30.90,NE,45,2.0,4.0,39,0.00,,,0.00,meteohub,2013-04-01 16:20:00,
2013-04-01 10:25:00,45.5,21.4,30.90,SE,135,1.0,4.0,38,0.00,,,0.00,meteohub,2013-04-01 16:25:00,
2013-04-01 10:31:00,46.2,21.9,30.90,South,180,2.0,3.0,38,0.00,,,0.00,meteohub,2013-04-01 16:31:00,
2013-04-01 10:36:00,46.9,21.4,30.90,South,180,3.0,4.0,36,0.00,,,0.00,meteohub,2013-04-01 16:36:00,
2013-04-01 10:41:00,46.9,21.4,30.90,South,180,5.0,5.0,36,0.00,,,0.00,meteohub,2013-04-01 16:41:00,
2013-04-01 10:46:00,46.2,21.9,30.90,South,180,4.0,5.0,38,0.00,,,0.00,meteohub,2013-04-01 16:46:00,
2013-04-01 10:51:00,45.7,22.1,30.90,South,180,6.0,6.0,39,0.00,,,0.00,meteohub,2013-04-01 16:51:00,
2013-04-01 10:56:00,45.3,21.7,30.90,South,180,8.0,8.0,39,0.00,,,0.00,meteohub,2013-04-01 16:56:00,
2013-04-01 11:01:00,44.8,21.9,30.91,South,180,11.0,11.0,40,0.00,,,0.00,meteohub,2013-04-01 17:01:00,
2013-04-01 11:06:00,44.4,22.1,30.90,South,180,11.0,11.0,41,0.00,,,0.00,meteohub,2013-04-01 17:06:00,
2013-04-01 11:11:00,43.5,23.0,30.90,South,180,11.0,14.0,44,0.00,,,0.00,meteohub,2013-04-01 17:11:00,
2013-04-01 11:16:00,42.8,23.4,30.91,SE,135,9.0,14.0,46,0.00,,,0.00,meteohub,2013-04-01 17:16:00,
2013-04-01 11:21:00,42.4,24.6,30.90,South,180,8.0,14.0,49,0.00,,,0.00,meteohub,2013-04-01 17:21:00,
2013-04-01 11:26:00,42.3,25.0,30.90,South,180,7.0,12.0,50,0.00,,,0.00,meteohub,2013-04-01 17:26:00,
2013-04-01 11:31:00,42.3,25.3,30.90,SE,135,7.0,9.0,51,0.00,,,0.00,meteohub,2013-04-01 17:31:00,
2013-04-01 11:36:00,42.8,25.0,30.90,South,180,4.0,8.0,49,0.00,,,0.00,meteohub,2013-04-01 17:36:00,
2013-04-01 11:42:00,44.1,26.1,30.90,South,180,8.0,8.0,49,0.00,,,0.00,meteohub,2013-04-01 17:42:00,
2013-04-01 11:47:00,44.2,26.2,30.90,South,180,8.0,9.0,49,0.00,,,0.00,meteohub,2013-04-01 17:47:00,
2013-04-01 11:52:00,44.2,26.2,30.90,South,180,4.0,9.0,49,0.00,,,0.00,meteohub,2013-04-01 17:52:00,
2013-04-01 11:57:00,45.1,26.6,30.89,South,180,4.0,9.0,48,0.00,,,0.00,meteohub,2013-04-01 17:57:00,
2013-04-01 12:02:00,45.9,27.3,30.89,South,180,9.0,9.0,48,0.00,,,0.00,meteohub,2013-04-01 18:02:00,
2013-04-01 12:07:00,45.9,27.3,30.89,South,180,9.0,9.0,48,0.00,,,0.00,meteohub,2013-04-01 18:07:00,
2013-04-01 12:12:00,47.8,27.0,30.88,South,180,3.0,9.0,44,0.00,,,0.00,meteohub,2013-04-01 18:12:00,
2013-04-01 12:17:00,48.9,26.2,30.88,South,180,3.0,9.0,41,0.00,,,0.00,meteohub,2013-04-01 18:17:00,
2013-04-01 12:22:00,49.8,26.4,30.87,SE,135,6.0,9.0,40,0.00,,,0.00,meteohub,2013-04-01 18:22:00,
2013-04-01 12:27:00,49.5,25.0,30.88,West,270,2.0,7.0,38,0.00,,,0.00,meteohub,2013-04-01 18:27:00,
2013-04-01 12:32:00,49.8,25.9,30.87,SW,225,2.0,7.0,39,0.00,,,0.00,meteohub,2013-04-01 18:32:00,
2013-04-01 12:37:00,50.5,23.9,30.87,West,270,3.0,7.0,35,0.00,,,0.00,meteohub,2013-04-01 18:37:00,
2013-04-01 12:42:00,50.5,23.2,30.87,East,90,1.0,4.0,34,0.00,,,0.00,meteohub,2013-04-01 18:42:00,
2013-04-01 12:47:00,49.8,23.2,30.87,South,180,4.0,4.0,35,0.00,,,0.00,meteohub,2013-04-01 18:47:00,
2013-04-01 12:53:00,48.6,22.8,30.87,South,180,4.0,4.0,36,0.00,,,0.00,meteohub,2013-04-01 18:53:00,
2013-04-01 12:58:00,47.3,24.8,30.86,South,180,4.0,4.0,41,0.00,,,0.00,meteohub,2013-04-01 18:58:00,
2013-04-01 13:03:00,46.8,24.3,30.87,South,180,4.0,5.0,41,0.00,,,0.00,meteohub,2013-04-01 19:03:00,
2013-04-01 13:08:00,46.8,24.8,30.87,SW,225,8.0,8.0,42,0.00,,,0.00,meteohub,2013-04-01 19:08:00,
2013-04-01 13:13:00,46.0,23.0,30.87,South,180,6.0,15.0,40,0.00,,,0.00,meteohub,2013-04-01 19:13:00,
2013-04-01 13:18:00,45.5,21.9,30.88,West,270,8.0,15.0,39,0.00,,,0.00,meteohub,2013-04-01 19:18:00,
2013-04-01 13:23:00,46.4,22.1,30.87,East,90,5.0,15.0,38,0.00,,,0.00,meteohub,2013-04-01 19:23:00,
2013-04-01 13:28:00,48.6,22.8,30.86,SE,135,4.0,15.0,36,0.00,,,0.00,meteohub,2013-04-01 19:28:00,
2013-04-01 13:33:00,50.4,22.3,30.85,NE,45,4.0,15.0,33,0.00,,,0.00,meteohub,2013-04-01 19:33:00,
2013-04-01 13:38:00,51.1,20.7,30.85,NE,45,3.0,9.0,30,0.00,,,0.00,meteohub,2013-04-01 19:38:00,
2013-04-01 13:43:00,51.6,19.6,30.84,North,0,6.0,8.0,28,0.00,,,0.00,meteohub,2013-04-01 19:43:00,
2013-04-01 13:48:00,52.2,17.4,30.84,NW,315,3.0,6.0,25,0.00,,,0.00,meteohub,2013-04-01 19:48:00,
2013-04-01 13:53:00,53.1,18.1,30.84,NW,315,7.0,7.0,25,0.00,,,0.00,meteohub,2013-04-01 19:53:00,
2013-04-01 13:58:00,52.2,16.5,30.84,NW,315,4.0,6.0,24,0.00,,,0.00,meteohub,2013-04-01 19:58:00,
2013-04-01 14:03:00,52.2,16.5,30.84,NW,315,4.0,7.0,24,0.00,,,0.00,meteohub,2013-04-01 20:03:00,
2013-04-01 14:08:00,51.1,19.0,30.84,North,0,3.0,7.0,28,0.00,,,0.00,meteohub,2013-04-01 20:08:00,
2013-04-01 14:13:00,50.9,21.4,30.84,North,0,4.0,8.0,31,0.00,,,0.00,meteohub,2013-04-01 20:13:00,
2013-04-01 14:18:00,52.0,19.9,30.84,NW,315,4.0,8.0,28,0.00,,,0.00,meteohub,2013-04-01 20:18:00,
2013-04-01 14:23:00,52.5,18.7,30.83,NW,315,5.0,8.0,26,0.00,,,0.00,meteohub,2013-04-01 20:23:00,
2013-04-01 14:28:00,52.7,17.8,30.83,North,0,4.0,6.0,25,0.00,,,0.00,meteohub,2013-04-01 20:28:00,
2013-04-01 14:33:00,52.0,16.3,30.83,SSW,203,2.0,7.0,24,0.00,,,0.00,meteohub,2013-04-01 20:33:00,
2013-04-01 14:39:00,51.4,16.7,30.84,West,270,9.0,9.0,25,0.00,,,0.00,meteohub,2013-04-01 20:39:00,
2013-04-01 14:44:00,50.9,17.2,30.84,SW,225,4.0,14.0,26,0.00,,,0.00,meteohub,2013-04-01 20:44:00,
2013-04-01 14:49:00,50.2,18.3,30.85,SE,135,4.0,14.0,28,0.00,,,0.00,meteohub,2013-04-01 20:49:00,
2013-04-01 14:54:00,49.1,20.5,30.85,South,180,8.0,14.0,32,0.00,,,0.00,meteohub,2013-04-01 20:54:00,
2013-04-01 14:59:00,47.3,24.3,30.84,SE,135,10.0,13.0,40,0.00,,,0.00,meteohub,2013-04-01 20:59:00,
2013-04-01 15:04:00,46.8,24.8,30.85,South,180,11.0,14.0,42,0.00,,,0.00,meteohub,2013-04-01 21:04:00,
2013-04-01 15:09:00,46.8,25.5,30.85,South,180,8.0,14.0,43,0.00,,,0.00,meteohub,2013-04-01 21:09:00,
2013-04-01 15:14:00,45.7,24.4,30.85,SE,135,6.0,14.0,43,0.00,,,0.00,meteohub,2013-04-01 21:14:00,
2013-04-01 15:19:00,44.8,24.8,30.84,SE,135,4.0,14.0,45,0.00,,,0.00,meteohub,2013-04-01 21:19:00,
2013-04-01 15:24:00,44.6,24.6,30.85,NE,45,4.0,14.0,45,0.00,,,0.00,meteohub,2013-04-01 21:24:00,
2013-04-01 15:29:00,44.4,25.0,30.84,South,180,2.0,14.0,46,0.00,,,0.00,meteohub,2013-04-01 21:29:00,
2013-04-01 15:34:00,44.6,24.1,30.84,South,180,2.0,7.0,44,0.00,,,0.00,meteohub,2013-04-01 21:34:00,
2013-04-01 15:39:00,44.6,23.5,30.84,NW,315,2.0,4.0,43,0.00,,,0.00,meteohub,2013-04-01 21:39:00,
2013-04-01 15:44:00,44.6,24.1,30.84,West,270,3.0,3.0,44,0.00,,,0.00,meteohub,2013-04-01 21:44:00,
2013-04-01 15:49:00,44.2,24.3,30.84,North,0,2.0,3.0,45,0.00,,,0.00,meteohub,2013-04-01 21:49:00,
2013-04-01 15:54:00,44.1,25.2,30.84,NE,45,3.0,3.0,47,0.00,,,0.00,meteohub,2013-04-01 21:54:00,
2013-04-01 15:59:00,44.1,25.2,30.84,NE,45,3.0,4.0,47,0.00,,,0.00,meteohub,2013-04-01 21:59:00,
2013-04-01 16:04:00,44.1,25.2,30.84,NE,45,3.0,4.0,47,0.00,,,0.00,meteohub,2013-04-01 22:04:00,
2013-04-01 16:09:00,45.0,26.4,30.84,North,0,5.0,5.0,48,0.00,,,0.00,meteohub,2013-04-01 22:09:00,
2013-04-01 16:14:00,46.0,27.5,30.84,WNW,293,4.0,4.0,48,0.00,,,0.00,meteohub,2013-04-01 22:14:00,
2013-04-01 16:19:00,46.6,27.9,30.84,NE,45,6.0,6.0,48,0.00,,,0.00,meteohub,2013-04-01 22:19:00,
2013-04-01 16:24:00,46.4,28.2,30.84,NNW,338,8.0,8.0,49,0.00,,,0.00,meteohub,2013-04-01 22:24:00,
2013-04-01 16:29:00,45.0,27.9,30.84,NE,45,11.0,11.0,51,0.00,,,0.00,meteohub,2013-04-01 22:29:00,
2013-04-01 16:34:00,42.6,28.9,30.84,WSW,248,9.0,11.0,58,0.00,,,0.00,meteohub,2013-04-01 22:34:00,
2013-04-01 16:39:00,41.5,29.1,30.83,North,0,5.0,14.0,61,0.00,,,0.00,meteohub,2013-04-01 22:39:00,
2013-04-01 16:44:00,40.8,29.1,30.83,West,270,4.0,14.0,63,0.00,,,0.00,meteohub,2013-04-01 22:44:00,
2013-04-01 16:49:00,40.6,29.1,30.84,SW,225,1.0,14.0,63,0.00,,,0.00,meteohub,2013-04-01 22:49:00,
2013-04-01 16:54:00,40.5,28.9,30.83,NE,45,4.0,8.0,63,0.00,,,0.00,meteohub,2013-04-01 22:54:00,
2013-04-01 16:59:00,40.3,28.8,30.84,NE,45,4.0,6.0,63,0.00,,,0.00,meteohub,2013-04-01 22:59:00,
2013-04-01 17:04:00,40.3,29.1,30.83,North,0,8.0,8.0,64,0.00,,,0.00,meteohub,2013-04-01 23:04:00,
2013-04-01 17:09:00,40.3,29.1,30.83,North,0,3.0,8.0,64,0.00,,,0.00,meteohub,2013-04-01 23:09:00,
2013-04-01 17:14:00,40.5,29.3,30.83,North,0,3.0,8.0,64,0.00,,,0.00,meteohub,2013-04-01 23:14:00,
2013-04-01 17:19:00,41.0,27.9,30.82,East,90,7.0,8.0,59,0.00,,,0.00,meteohub,2013-04-01 23:19:00,
2013-04-01 17:24:00,41.7,27.1,30.82,SE,135,3.0,7.0,56,0.00,,,0.00,meteohub,2013-04-01 23:24:00,
2013-04-01 17:29:00,42.4,27.0,30.82,SE,135,3.0,7.0,54,0.00,,,0.00,meteohub,2013-04-01 23:29:00,
2013-04-01 17:34:00,42.8,25.5,30.82,SE,135,7.0,7.0,50,0.00,,,0.00,meteohub,2013-04-01 23:34:00,
2013-04-01 17:39:00,43.7,25.7,30.82,South,180,5.0,6.0,49,0.00,,,0.00,meteohub,2013-04-01 23:39:00,
2013-04-01 17:44:00,44.6,25.7,30.81,SE,135,6.0,7.0,47,0.00,,,0.00,meteohub,2013-04-01 23:44:00,
2013-04-01 17:49:00,44.8,25.3,30.81,SE,135,5.0,7.0,46,0.00,,,0.00,meteohub,2013-04-01 23:49:00,
2013-04-01 17:54:00,45.7,25.5,30.81,SE,135,4.0,7.0,45,0.00,,,0.00,meteohub,2013-04-01 23:54:00,
2013-04-01 17:59:00,46.0,25.3,30.81,South,180,5.0,7.0,44,0.00,,,0.00,meteohub,2013-04-01 23:59:00,
2013-04-01 18:04:00,46.0,25.3,30.81,South,180,5.0,8.0,44,0.00,,,0.00,meteohub,2013-04-02 00:04:00,
2013-04-01 18:09:00,46.6,25.3,30.81,SSW,203,6.0,8.0,43,0.00,,,0.00,meteohub,2013-04-02 00:09:00,
2013-04-01 18:14:00,46.0,24.3,30.82,North,0,6.0,8.0,42,0.00,,,0.00,meteohub,2013-04-02 00:14:00,
2013-04-01 18:19:00,44.6,24.6,30.82,South,180,3.0,7.0,45,0.00,,,0.00,meteohub,2013-04-02 00:19:00,
2013-04-01 18:24:00,43.2,25.3,30.82,SW,225,5.0,9.0,49,0.00,,,0.00,meteohub,2013-04-02 00:24:00,
2013-04-01 18:29:00,41.7,25.9,30.82,NW,315,7.0,9.0,53,0.00,,,0.00,meteohub,2013-04-02 00:29:00,
2013-04-01 18:34:00,40.8,27.1,30.82,NW,315,7.0,9.0,58,0.00,,,0.00,meteohub,2013-04-02 00:34:00,
2013-04-01 18:39:00,40.1,27.3,30.82,East,90,2.0,10.0,60,0.00,,,0.00,meteohub,2013-04-02 00:39:00,
2013-04-01 18:45:00,39.7,27.3,30.82,West,270,3.0,10.0,61,0.00,,,0.00,meteohub,2013-04-02 00:45:00,
2013-04-01 18:50:00,39.4,27.5,30.82,North,0,3.0,8.0,62,0.00,,,0.00,meteohub,2013-04-02 00:50:00,
2013-04-01 18:55:00,39.0,27.9,30.82,North,0,6.0,8.0,64,0.00,,,0.00,meteohub,2013-04-02 00:55:00,
2013-04-01 19:00:00,38.8,28.0,30.82,NE,45,4.0,6.0,65,0.00,,,0.00,meteohub,2013-04-02 01:00:00,
2013-04-01 19:05:00,38.8,28.0,30.82,North,0,4.0,7.0,65,0.00,,,0.00,meteohub,2013-04-02 01:05:00,
2013-04-01 19:10:00,38.7,27.9,30.82,North,0,7.0,8.0,65,0.00,,,0.00,meteohub,2013-04-02 01:10:00,
2013-04-01 19:15:00,38.3,27.9,30.83,North,0,4.0,8.0,66,0.00,,,0.00,meteohub,2013-04-02 01:15:00,
2013-04-01 19:20:00,37.9,28.0,30.83,West,270,9.0,9.0,67,0.00,,,0.00,meteohub,2013-04-02 01:20:00,
2013-04-01 19:25:00,37.6,28.4,30.83,North,0,7.0,10.0,69,0.00,,,0.00,meteohub,2013-04-02 01:25:00,
2013-04-01 19:30:00,37.2,27.0,30.83,North,0,8.0,10.0,66,0.00,,,0.00,meteohub,2013-04-02 01:30:00,
2013-04-01 19:35:00,36.9,27.3,30.83,NW,315,5.0,10.0,68,0.00,,,0.00,meteohub,2013-04-02 01:35:00,
2013-04-01 19:40:00,36.7,27.1,30.84,NNE,23,8.0,10.0,68,0.00,,,0.00,meteohub,2013-04-02 01:40:00,
2013-04-01 19:45:00,36.3,27.1,30.84,West,270,8.0,10.0,69,0.00,,,0.00,meteohub,2013-04-02 01:45:00,
2013-04-01 19:50:00,36.1,27.0,30.85,NW,315,2.0,10.0,69,0.00,,,0.00,meteohub,2013-04-02 01:50:00,
2013-04-01 19:55:00,36.0,26.8,30.86,North,0,2.0,8.0,69,0.00,,,0.00,meteohub,2013-04-02 01:55:00,
2013-04-01 20:00:00,36.0,26.8,30.86,North,0,6.0,8.0,69,0.00,,,0.00,meteohub,2013-04-02 02:00:00,
2013-04-01 20:05:00,36.0,26.8,30.84,North,0,6.0,8.0,69,0.00,,,0.00,meteohub,2013-04-02 02:05:00,
2013-04-01 20:10:00,35.8,27.0,30.85,NE,45,2.0,6.0,70,0.00,,,0.00,meteohub,2013-04-02 02:10:00,
2013-04-01 20:15:00,35.8,27.0,30.85,North,0,4.0,6.0,70,0.00,,,0.00,meteohub,2013-04-02 02:15:00,
2013-04-01 20:20:00,35.8,27.0,30.85,SW,225,1.0,6.0,70,0.00,,,0.00,meteohub,2013-04-02 02:20:00,
2013-04-01 20:25:00,35.6,26.8,30.86,NW,315,4.0,5.0,70,0.00,,,0.00,meteohub,2013-04-02 02:25:00,
2013-04-01 20:30:00,35.4,27.0,30.86,North,0,2.0,4.0,71,0.00,,,0.00,meteohub,2013-04-02 02:30:00,
2013-04-01 20:35:00,35.2,27.1,30.86,NE,45,4.0,4.0,72,0.00,,,0.00,meteohub,2013-04-02 02:35:00,
2013-04-01 20:40:00,34.9,27.1,30.86,North,0,4.0,5.0,73,0.00,,,0.00,meteohub,2013-04-02 02:40:00,
2013-04-01 20:45:00,34.9,27.5,30.86,North,0,3.0,7.0,74,0.00,,,0.00,meteohub,2013-04-02 02:45:00,
2013-04-01 20:50:00,34.7,27.3,30.87,NE,45,3.0,7.0,74,0.00,,,0.00,meteohub,2013-04-02 02:50:00,
2013-04-01 20:55:00,34.5,27.1,30.87,North,0,3.0,6.0,74,0.00,,,0.00,meteohub,2013-04-02 02:55:00,
2013-04-01 21:00:00,34.3,27.3,30.87,NE,45,5.0,6.0,75,0.00,,,0.00,meteohub,2013-04-02 03:00:00,
2013-04-01 21:05:00,34.3,27.5,30.87,NE,45,4.0,6.0,76,0.00,,,0.00,meteohub,2013-04-02 03:05:00,
2013-04-01 21:10:00,34.5,28.0,30.87,NE,45,5.0,5.0,77,0.00,,,0.00,meteohub,2013-04-02 03:10:00,
2013-04-01 21:15:00,34.5,28.0,30.87,NE,45,2.0,5.0,77,0.00,,,0.00,meteohub,2013-04-02 03:15:00,
2013-04-01 21:20:00,34.3,27.9,30.87,North,0,3.0,5.0,77,0.00,,,0.00,meteohub,2013-04-02 03:20:00,
2013-04-01 21:25:00,34.2,27.7,30.87,North,0,3.0,5.0,77,0.00,,,0.00,meteohub,2013-04-02 03:25:00,
2013-04-01 21:31:00,34.0,27.5,30.87,NE,45,3.0,5.0,77,0.00,,,0.00,meteohub,2013-04-02 03:31:00,
2013-04-01 21:36:00,33.6,27.5,30.87,NE,45,3.0,4.0,78,0.00,,,0.00,meteohub,2013-04-02 03:36:00,
2013-04-01 21:41:00,33.3,27.1,30.87,NE,45,2.0,4.0,78,0.00,,,0.00,meteohub,2013-04-02 03:41:00,
2013-04-01 21:46:00,33.1,27.0,30.87,NE,45,2.0,4.0,78,0.00,,,0.00,meteohub,2013-04-02 03:46:00,
2013-04-01 21:51:00,32.9,26.8,30.87,East,90,2.0,4.0,78,0.00,,,0.00,meteohub,2013-04-02 03:51:00,
2013-04-01 21:56:00,32.7,26.6,30.87,East,90,3.0,4.0,78,0.00,,,0.00,meteohub,2013-04-02 03:56:00,
2013-04-01 22:00:00,32.4,26.2,30.87,East,90,4.0,4.0,78,0.00,,,0.00,meteohub,2013-04-02 04:00:00,
2013-04-01 22:05:00,32.4,26.2,30.87,East,90,4.0,4.0,78,0.00,,,0.00,meteohub,2013-04-02 04:05:00,
2013-04-01 22:10:00,32.0,25.9,30.87,East,90,3.0,4.0,78,0.00,,,0.00,meteohub,2013-04-02 04:10:00,
2013-04-01 22:15:00,31.8,26.1,30.87,NE,45,2.0,4.0,79,0.00,,,0.00,meteohub,2013-04-02 04:15:00,
2013-04-01 22:20:00,31.6,25.9,30.87,SW,225,2.0,4.0,79,0.00,,,0.00,meteohub,2013-04-02 04:20:00,
2013-04-01 22:25:00,31.5,25.7,30.87,SE,135,3.0,3.0,79,0.00,,,0.00,meteohub,2013-04-02 04:25:00,
2013-04-01 22:30:00,31.5,25.7,30.87,NW,315,1.0,3.0,79,0.00,,,0.00,meteohub,2013-04-02 04:30:00,
2013-04-01 22:36:00,31.1,25.3,30.87,NW,315,2.0,4.0,79,0.00,,,0.00,meteohub,2013-04-02 04:36:00,
2013-04-01 22:41:00,30.6,24.8,30.87,NE,45,2.0,4.0,79,0.00,,,0.00,meteohub,2013-04-02 04:41:00,
2013-04-01 22:46:00,30.4,24.6,30.87,NE,45,2.0,4.0,79,0.00,,,0.00,meteohub,2013-04-02 04:46:00,
2013-04-01 22:51:00,30.4,25.0,30.87,East,90,3.0,3.0,80,0.00,,,0.00,meteohub,2013-04-02 04:51:00,
2013-04-01 22:56:00,30.6,25.2,30.87,East,90,2.0,3.0,80,0.00,,,0.00,meteohub,2013-04-02 04:56:00,
2013-04-01 23:02:00,30.2,24.8,30.87,North,0,2.0,3.0,80,0.00,,,0.00,meteohub,2013-04-02 05:02:00,
2013-04-01 23:07:00,30.0,25.0,30.87,NE,45,2.0,3.0,81,0.00,,,0.00,meteohub,2013-04-02 05:07:00,
2013-04-01 23:12:00,29.8,24.8,30.87,NNE,23,2.0,3.0,81,0.00,,,0.00,meteohub,2013-04-02 05:12:00,
2013-04-01 23:17:00,30.0,25.2,30.87,NE,45,3.0,3.0,82,0.00,,,0.00,meteohub,2013-04-02 05:17:00,
2013-04-01 23:22:00,30.4,25.3,30.87,NE,45,2.0,3.0,81,0.00,,,0.00,meteohub,2013-04-02 05:22:00,
2013-04-01 23:27:00,30.7,25.5,30.87,NE,45,0.0,3.0,81,0.00,,,0.00,meteohub,2013-04-02 05:27:00,
2013-04-01 23:32:00,30.6,25.3,30.87,South,180,1.0,3.0,81,0.00,,,0.00,meteohub,2013-04-02 05:32:00,
2013-04-01 23:37:00,30.4,25.3,30.87,South,180,0.0,2.0,81,0.00,,,0.00,meteohub,2013-04-02 05:37:00,
2013-04-01 23:42:00,30.2,25.2,30.87,South,180,2.0,2.0,81,0.00,,,0.00,meteohub,2013-04-02 05:42:00,
2013-04-01 23:47:00,30.2,25.2,30.87,South,180,1.0,2.0,81,0.00,,,0.00,meteohub,2013-04-02 05:47:00,
2013-04-01 23:52:00,30.0,25.2,30.87,South,180,2.0,2.0,82,0.00,,,0.00,meteohub,2013-04-02 05:52:00,
2013-04-01 23:58:00,30.2,25.2,30.87,East,90,2.0,2.0,81,0.00,,,0.00,meteohub,2013-04-02 05:58:00,